Terug naar catalogus

AYAME 2 DEB

ActiefHEO
NORAD 28999·DEBRIS·🇯🇵 Japan

Gelanceerd Feb 22, 1980 vanaf Tanegashima Space Center

Loading…

Volgende Passages (komende 24 uur)

TLE

VersSource: Space-Track

Epoch: Sep 13, 2026, 11:33 UTC

1 28999U 80018D   26256.48157340 -.00000156  00000-0  00000+0 0  9999
2 28999   9.4131  28.5871 4331194 316.1877  16.6133  1.75811653134214

Volg AYAME 2 DEB in realtime met AllMySat

Download on the App Store